{"data":{"norad_id":57226,"intl_designator":"2023-094J","name":"STARLINK-6350","alt_names":[],"object_type":"PAYLOAD","status":"ACTIVE","operator":null,"country":"US","launch_date":"2023-07-07","launch_site_code":"AFWTR","launch_vehicle":null,"mission":null,"orbit_class":"UNKNOWN","rcs_meters":null,"size_class":null,"mass_kg":null,"dimensions":null,"purposes":["comms"],"wikipedia_slug":null,"has_3d_model":false,"image_url":null,"decayed_at":null,"tle_current":{"epoch":"2026-09-20T08:23:34.097280Z","epoch_age_seconds":133994,"freshness":"FRESH","line1":"1 57226U 23094J   26263.34970020 -.00000509  00000+0 -89715-5 0  9994","line2":"2 57226  43.0056  11.6011 0001616 279.0871  80.9797 15.27575743176886","mean_motion":15.27575743,"eccentricity":0.0001616,"inclination_deg":43.0056,"raan_deg":11.6011,"arg_perigee_deg":279.0871,"mean_anomaly_deg":80.9797,"bstar":-8.9715e-6,"rev_number":17688,"period_min":94.26701141326,"perigee_km":481.95307332566,"apogee_km":484.17061279174,"semimajor_km":6861.1988430587,"source":"CELESTRAK","updated_at":"2026-09-21T09:00:33.585272Z"}}}